This is the latest recevied weather packets stored in our database for station/object KC8QDR-1. If no packets are shown the sender has not sent any weather packets the latest 1 day(s).
| Time | Temp. | Humidity | Pressure | Rain* | Wind** | Luminosity | Snow |
|---|---|---|---|---|---|---|---|
| 1778002125 | 20.56° C | 61% | 1016.1 hPa | 0 mm | 1.34 m/s, 196° | - | - |
| 1778001525 | 20.56° C | 61% | 1016.1 hPa | 0 mm | 3.13 m/s, 204° | - | - |
| 1778000924 | 20.56° C | 58% | 1016.2 hPa | 0 mm | 2.24 m/s, 278° | - | - |
| 1778000325 | 21.11° C | 57% | 1016.2 hPa | 0 mm | 0.89 m/s, 204° | - | - |
| 1777999724 | 21.67° C | 55% | 1016.2 hPa | 0 mm | 3.13 m/s, 266° | - | - |
| 1777999125 | 22.22° C | 57% | 1016.2 hPa | 0 mm | 0.45 m/s, 165° | - | - |
| 1777998525 | 22.22° C | 55% | 1016.1 hPa | 0 mm | 1.79 m/s, 247° | - | - |
| 1777997925 | 21.67° C | 55% | 1016 hPa | 0 mm | 0.89 m/s, 235° | - | - |
| 1777997325 | 21.11° C | 56% | 1016 hPa | 0 mm | 1.34 m/s, 187° | - | - |
| 1777996726 | 21.11° C | 57% | 1016 hPa | 0 mm | 1.79 m/s, 153° | - | - |
| 1777996125 | 20.56° C | 60% | 1015.9 hPa | 0 mm | 1.34 m/s, 210° | - | - |
| 1777995526 | 20.56° C | 62% | 1016.2 hPa | 0 mm | 1.79 m/s, 228° | - | - |
| 1777994925 | 20° C | 60% | 1016.4 hPa | 0 mm | 1.79 m/s, 207° | - | - |
| 1777994325 | 20° C | 62% | 1016.1 hPa | 0 mm | 2.24 m/s, 203° | - | - |
| 1777993724 | 20° C | 61% | 1016.2 hPa | 0 mm | 4.92 m/s, 199° | - | - |
| 1777993126 | 20° C | 61% | 1016.1 hPa | 0 mm | 2.68 m/s, 258° | - | - |
| 1777992525 | 19.44° C | 64% | 1015.8 hPa | 0 mm | 1.79 m/s, 193° | - | - |
| 1777991325 | 20° C | 67% | 1015.6 hPa | 0 mm | 3.58 m/s, 182° | - | - |
| 1777990725 | 18.89° C | 68% | 1015.8 hPa | 0 mm | 3.58 m/s, 193° | - | - |
| 1777990124 | 18.33° C | 71% | 1015.7 hPa | 0 mm | 3.13 m/s, 187° | - | - |
| 1777989525 | 17.22° C | 75% | 1015.8 hPa | 0 mm | 1.34 m/s, 196° | - | - |
| 1777988924 | 17.22° C | 75% | 1015.9 hPa | 0 mm | 1.34 m/s, 184° | - | - |
| 1777988325 | 16.67° C | 76% | 1015.9 hPa | 0.25 mm | 2.68 m/s, 186° | - | - |
| 1777987724 | 16.67° C | 76% | 1016 hPa | 0.25 mm | 2.24 m/s, 177° | - | - |
| 1777987126 | 16.67° C | 77% | 1015.8 hPa | 0.25 mm | 2.68 m/s, 184° | - | - |
* Rain latest hour (hover to see other rain measurements)
** Current wind speed in m/s (hover to see current wind gust speed)